Weather in Hostomel

Ukraine / Kyiv Region     50°34′48″N   30°15′53″E
temp.,
°C
wind,
m/s
gust,
m/s
humid.,
%
clouds,
%
prec.,
mm/h
press.,
hPa
HPBL,
m
24 september, fri
fri2400:00+6ssw4893100 0.0 1011245
03:00+7ssw41191100 0.4 1008411
06:00+9ssw71593100 2.6 1004692
09:00+9ssw81793100 9.5 10011043
12:00+11wsw7128543 4.5 1001921
15:00+14wnw7136786 5.2 10011689
18:00+12w51171100 0.2 1002950
21:00+10wnw61279100 0.6 10041112
25 september, sat
sat2500:00+10wnw61283100 0.2 1005775
03:00+9wnw61287100 0.3 1006760
06:00+9wnw61287100 0.0 1008686
09:00+10wnw51085100 0.0 1011589
12:00+13wnw5768100 0.0 1013917
15:00+13w4865100 0.0 1013809
18:00+13w41177100 0.0 1014677
21:00+14w51285100 0.1 1014588
26 september, sun
sun2600:00+14w61290100 0.3 1014706
03:00+14wnw6128814 0.4 1015779
06:00+11wnw512910 0.0 1016520
09:00+12nw511780 0.0 1018485
12:00+16nnw686115 0.0 10191191
15:00+17nnw68470 0.0 10191362
18:00+15nnw48560 0.0 1020675
21:00+10n49730 0.0 1022398
27 september, mon
mon2700:00+9n37760 0.0 1023313
03:00+7nnw38792 0.0 1023170
06:00+6nnw37835 0.0 1024156
09:00+9n47755 0.0 1024334
12:00+14nne45570 0.0 10241062
15:00+15nne45512 0.0 10241347
18:00+13nne355882 0.0 1024507
21:00+12ne2462100 0.0 1025209
28 september, tue
tue2800:00+12ne2567100 0.1 1025224
03:00+11ene2573100 0.1 1026236
06:00+10ne3575100 0.0 1026257
09:00+11ne3677100 0.1 1027375
12:00+12ene3467100 0.0 1028587
15:00+14ne345622 0.0 10281062
18:00+13nne346476 0.1 1028372
21:00+12ene366590 0.1 1029275